Regional Weather Roundup
Issued by NWS Little Rock, AR

Home | Current Version | Previous Version | Graphics & Text | Print | Product List | Glossary On
Versions: 1 2 3 4 5 6 7 8 9 10 11 12 13 14 15 16 17 18 19 20 21 22 23 24 25 26 27 28 29 30 31 32 33
000
ASUS44 KLZK 220712
RWRLZK

WEATHER ROUNDUP FOR ARKANSAS
NATIONAL WEATHER SERVICE LITTLE ROCK AR
200 AM CDT TUE AUG 22 2017

NOTE: "FAIR" INDICATES FEW OR NO CLOUDS BELOW 12,000 FEET WITH NO
SIGNIFICANT WEATHER AND/OR OBSTRUCTIONS TO VISIBILITY.

ARZ001-003-010-029-220800-
NORTHWEST ARKANSAS

CITY           SKY/WX    TMP DP  RH WIND       PRES   REMARKS
FAYETTEVILLE   CLEAR     73  72  96 VRB3      30.07F
BENTONVILLE    CLEAR     75  70  83 S7        30.06F
ROGERS         CLOUDY    77  72  84 S13       30.06F
HIGHFILL       CLEAR     75  73  93 S7        30.06F
$$

ARZ004-005-016-220800-
NORTH CENTRAL ARKANSAS

CITY           SKY/WX    TMP DP  RH WIND       PRES   REMARKS
FLIPPIN        CLEAR     77  70  78 SW5       30.03S
$$

ARZ040-041-220800-
WEST CENTRAL ARKANSAS

CITY           SKY/WX    TMP DP  RH WIND       PRES   REMARKS
MENA           CLEAR     81  79  94 CALM      30.09F HX  89
MOUNT IDA      CLEAR     75  73  93 CALM      30.06F
$$

ARZ009-017-025-026-028-220800-
NORTHEAST ARKANSAS

CITY           SKY/WX    TMP DP  RH WIND       PRES   REMARKS
CORNING        FAIR      77  77 100 SW7       30.03F
NEWPORT        CLEAR     76  74  93 S6        30.04F
WALNUT RIDGE   CLEAR     77  73  88 S7        30.04S
$$

ARZ022-023-033-042-044-220800-
CENTRAL ARKANSAS

CITY           SKY/WX    TMP DP  RH WIND       PRES   REMARKS
LITTLE ROCK    CLEAR     77  76  96 S6        30.05F
JACKSONVILLE   CLEAR     78  76  95 CALM      30.05F
CONWAY           N/A     77  77 100 S5        30.03F
SEARCY         CLEAR     76  76 100 CALM      30.06F
CLINTON        FAIR      73  73 100 CALM      30.06F FOG
$$

ARZ036-220800-
EAST ARKANSAS

CITY           SKY/WX    TMP DP  RH WIND       PRES   REMARKS
$$

ARZ050-053-066-070-073-220800-
SOUTHWEST ARKANSAS

CITY           SKY/WX    TMP DP  RH WIND       PRES   REMARKS
ARKADELPHIA    FOG       73  73 100 CALM      30.06F VSB 1
CAMDEN         CLEAR     75  72  88 CALM      30.05F FOG
TEXARKANA      CLEAR     77  75  93 S5        30.06F
EL DORADO      CLEAR     75  74  96 CALM      30.07S
DE QUEEN       FOG       73  73 100 CALM      30.04F VSB 1/2
$$

ARZ056-057-069-220800-
SOUTHEAST ARKANSAS

CITY           SKY/WX    TMP DP  RH WIND       PRES   REMARKS

$$






USA.gov is the U.S. government's official web portal to all federal, state and local government web resources and services.